GW0414 Weather Reports


Display with metric or nautical units.
time (UTC)temp
F
wind
direction
speed
MPH
gust
MPH
rain 1hr
in
rain 24hr
in
rain mn
in
humidity
%
barometer
mb
20260503003707 55 148 4.0 9.0 0.00 0.00 0.00 99 1011.9
20260503003150 55 145 5.0 9.0 0.00 0.00 0.00 99 1011.7
20260503001707 55 119 5.0 10.0 0.00 0.00 0.00 99 1011.9
20260503000707 55 165 5.0 9.0 0.02 0.00 0.00 99 1012.0
20260502234707 55 112 3.0 8.0 0.13 0.00 0.00 99 1012.0
20260502233707 55 131 3.0 13.0 0.17 0.00 0.00 98 1012.0
20260502232707 56 100 6.0 17.0 0.20 0.00 0.00 99 1012.0
20260502231707 56 97 6.0 13.0 0.22 0.00 0.00 99 1012.0
20260502225707 56 110 10.0 21.0 0.19 0.00 0.00 97 1012.4
20260502225146 55 108 9.0 19.0 0.14 0.00 0.00 96 1013.0
20260502224145 55 113 19.0 19.0 0.09 0.00 0.00 95 1013.4
20260502222706 56 118 10.0 12.0 0.06 0.00 0.00 93 1014.1
20260502221705 57 118 7.0 11.0 0.04 0.00 0.00 90 1014.4
20260502220706 57 159 7.0 15.0 0.01 0.00 0.00 89 1014.6
20260502215708 57 202 11.0 19.0 0.00 0.00 0.00 97 1015.3
20260502214707 56 111 7.0 13.0 0.00 0.00 0.00 96 1013.7
20260502213706 56 69 5.0 6.0 0.00 0.00 0.00 96 1013.4
20260502212707 55 126 0.0 3.0 0.00 0.00 0.00 96 1013.5
20260502211708 55 54 1.0 3.0 0.00 0.00 0.00 95 1013.3
20260502210706 55 34 1.0 2.0 0.00 0.00 0.00 94 1013.3
20260502205707 55 45 0.0 4.0 0.00 0.00 0.00 93 1013.5
20260502204706 55 52 1.0 5.0 0.00 0.00 0.00 92 1013.6
20260502203708 54 62 1.0 3.0 0.00 0.00 0.00 91 1014.0
20260502202706 54 104 1.0 4.0 0.00 0.00 0.00 90 1014.1
20260502201706 54 46 3.0 4.0 0.00 0.00 0.00 88 1014.0
20260502200706 55 30 2.0 3.0 0.00 0.00 0.00 86 1014.3
20260502195705 54 77 1.0 3.0 0.00 0.00 0.00 84 1014.2
20260502194705 55 103 2.0 4.0 0.00 0.00 0.00 83 1014.4
20260502193706 54 97 1.0 3.0 0.00 0.00 0.00 83 1014.3
20260502192705 54 18 2.0 4.0 0.00 0.00 0.00 82 1014.3
20260502191705 55 21 3.0 4.0 0.00 0.00 0.00 83 1014.2
20260502190707 57 340 4.0 4.0 0.00 0.00 0.00 82 1014.3
20260502185705 57 24 2.0 3.0 0.00 0.00 0.00 83 1014.5
20260502184705 57 50 1.0 4.0 0.00 0.00 0.00 83 1014.5
20260502184154 58 358 2.0 4.0 0.00 0.00 0.00 81 1014.1
20260502182637 59 9 0.0 3.0 0.00 0.00 0.00 80 1014.3
20260502181638 59 356 3.0 5.0 0.00 0.00 0.00 78 1014.2
20260502180638 60 349 5.0 6.0 0.00 0.00 0.00 76 1014.3
20260502163638 67 345 2.0 6.0 0.00 0.00 0.00 55 1015.3
20260502163123 67 287 1.0 5.0 0.00 0.00 0.00 56 1015.3
20260502161638 68 284 2.0 6.0 0.00 0.00 0.00 57 1015.4
20260502160637 69 266 3.0 5.0 0.00 0.00 0.00 52 1015.4
20260502151638 70 329 2.0 7.0 0.00 0.00 0.00 55 1015.8
20260502150637 70 252 2.0 6.0 0.00 0.00 0.00 58 1015.9
20260502150114 70 251 4.0 7.0 0.00 0.00 0.00 55 1016.0
20260502130638 68 222 2.0 9.0 0.00 0.00 0.00 75 1017.0
20260502122638 67 209 10.0 15.0 0.00 0.00 0.00 77 1017.0
20260502115637 67 228 6.0 13.0 0.00 0.00 0.00 80 1017.3
20260502114638 66 212 6.0 15.0 0.00 0.00 0.00 82 1017.5
20260502114113 66 252 8.0 14.0 0.00 0.00 0.00 80 1017.6
20260502112637 65 222 7.0 11.0 0.00 0.00 0.00 84 1017.5
20260502111650 66 229 6.0 11.0 0.00 0.00 0.00 82 1017.7
20260502105638 67 336 1.0 13.0 0.00 0.00 0.00 83 1017.5
20260502104638 66 208 11.0 14.0 0.00 0.00 0.00 80 1017.9
20260502103639 66 213 9.0 15.0 0.00 0.00 0.00 79 1017.7
20260502103118 66 221 12.0 16.0 0.00 0.00 0.00 79 1017.8
20260502102114 66 194 7.0 15.0 0.00 0.00 0.00 78 1017.8
20260502100638 66 198 9.0 15.0 0.00 0.00 0.00 78 1017.9
20260502100114 66 205 12.0 15.0 0.00 0.00 0.00 80 1017.9
20260502070638 57 191 6.0 6.0 0.00 0.00 0.00 78 1018.2
20260502070116 56 178 3.0 5.0 0.00 0.00 0.00 80 1018.1
20260502064637 56 143 3.0 4.0 0.00 0.00 0.00 78 1018.0
20260502063638 55 130 2.0 4.0 0.00 0.00 0.00 79 1018.1
20260502062637 55 137 4.0 4.0 0.00 0.00 0.00 79 1018.0
20260502062124 55 137 2.0 5.0 0.00 0.00 0.00 78 1018.1
20260502060637 55 168 3.0 6.0 0.00 0.00 0.00 77 1018.1
20260502055637 55 173 5.0 6.0 0.00 0.00 0.00 76 1018.4
20260502054637 55 193 4.0 7.0 0.00 0.00 0.00 78 1018.2
20260502053637 54 130 3.0 4.0 0.00 0.00 0.00 77 1017.7
20260502052638 54 128 2.0 4.0 0.00 0.00 0.00 73 1017.7
20260502051637 53 135 3.0 5.0 0.00 0.00 0.00 74 1017.8
20260502050637 52 131 3.0 4.0 0.00 0.00 0.00 74 1017.9
20260502044637 50 133 2.0 3.0 0.00 0.00 0.00 75 1018.0
20260502044120 50 138 3.0 4.0 0.00 0.00 0.00 76 1018.0
20260502042638 50 142 3.0 4.0 0.00 0.00 0.00 76 1017.8
20260502041637 50 129 3.0 4.0 0.00 0.00 0.00 77 1017.8
20260502040637 50 118 2.0 4.0 0.00 0.00 0.00 76 1017.9
20260502035638 50 107 2.0 4.0 0.00 0.00 0.00 77 1017.9
20260502034637 50 146 3.0 5.0 0.00 0.00 0.00 75 1018.0
20260502033637 51 107 4.0 6.0 0.00 0.00 0.00 74 1017.9
20260502032638 51 119 5.0 6.0 0.00 0.00 0.00 75 1018.1
20260502031638 51 127 3.0 5.0 0.00 0.00 0.00 76 1018.1
20260502030638 51 132 3.0 4.0 0.00 0.00 0.00 75 1018.3
20260502030130 51 137 3.0 6.0 0.00 0.00 0.00 75 1018.3
20260502024639 51 102 3.0 6.0 0.00 0.00 0.00 75 1018.4
20260502023638 52 139 3.0 4.0 0.00 0.00 0.00 73 1018.5
20260502022637 52 132 2.0 5.0 0.00 0.00 0.00 72 1018.3
20260502021637 53 140 3.0 5.0 0.00 0.00 0.00 72 1018.6
20260502021126 53 140 4.0 5.0 0.00 0.00 0.00 72 1018.5
20260502015637 53 141 4.0 5.0 0.00 0.00 0.00 70 1018.7
20260502014639 55 124 5.0 6.0 0.00 0.00 0.00 67 1018.8
20260502013637 54 131 6.0 7.0 0.00 0.00 0.00 67 1018.6
20260502012638 52 127 3.0 5.0 0.00 0.00 0.00 73 1018.6
20260502012116 53 132 4.0 5.0 0.00 0.00 0.00 72 1018.9
20260502010638 53 117 4.0 7.0 0.00 0.00 0.00 72 1019.0
20260502005637 54 128 5.0 6.0 0.00 0.00 0.00 70 1019.1